CAPE
0 0 0 0 0 0 0 0 0 0 0 0 0 0 0 0 33 7 0 1 56 181 379 352 537 532 501 417 50 0 26 137 88 22 16 16 11 6 4 9 11 6 5 6 4 2 0 0 0
0 0 0 0 0 0 0 0 0 0 0 0 0 14 22 15 16 2 2 49 116 255 264 270 320 222 263 254 0 0 57 54 6 9 14 14 15 6 3 7 7 4 12 9 6 2 0 0 0
0 0 0 0 0 0 0 0 0 0 0 0 0 17 13 30 0 1 0 182 219 271 233 177 111 99 40 79 1 7 7 11 6 9 19 14 14 6 7 4 6 11 4 9 6 2 0 0 0
0 0 0 2 0 0 0 0 0 0 0 0 1 37 99 42 13 11 194 308 298 291 246 134 108 68 29 7 3 2 6 8 3 13 4 16 16 5 14 6 5 10 2 13 6 1 0 0 0
0 0 0 0 0 0 0 0 0 0 0 0 0 3 127 119 13 186 344 376 269 311 219 141 107 79 24 4 2 4 7 6 7 5 13 25 6 4 3 4 5 4 3 4 8 1 0 0 0
0 0 0 0 0 0 0 0 0 0 0 0 0 10 179 154 30 340 503 389 321 281 186 150 111 68 8 0 0 1 3 6 9 12 15 19 7 4 3 7 3 9 8 12 5 0 0 0 0
0 0 0 0 0 0 0 0 0 0 0 0 0 0 59 261 6 516 598 467 388 270 195 125 99 28 0 0 0 7 3 7 6 15 10 10 9 3 2 2 8 7 12 21 13 0 0 0 0
0 0 0 0 0 0 0 0 0 0 0 0 0 0 33 284 5 623 565 490 424 287 210 132 55 17 0 0 0 1 6 5 4 7 5 4 5 5 5 8 7 6 26 21 18 0 0 0 0
0 0 0 0 0 0 0 0 0 0 0 0 0 8 102 232 21 427 505 478 405 291 230 130 45 4 0 0 0 0 2 4 4 3 4 1 6 4 4 2 3 9 16 9 1 0 0 0 0
0 0 0 0 0 0 0 0 0 0 0 0 0 0 0 138 96 291 461 605 474 369 260 159 29 0 0 0 0 0 1 1 1 1 1 2 1 3 0 0 2 6 5 1 0 0 0 0 0
0 0 0 0 0 0 0 0 0 0 0 0 0 0 0 0 30 221 358 464 567 482 297 159 30 1 0 0 0 0 2 0 1 0 0 3 1 0 0 0 0 0 0 4 0 0 0 0 0
0 0 0 0 0 0 0 0 0 0 0 0 0 0 0 0 0 110 286 315 482 492 302 148 46 2 0 0 0 0 0 0 0 1 0 1 0 0 0 0 0 0 0 0 0 0 0 0 0
0 0 0 0 0 0 0 0 0 0 0 0 0 0 0 0 0 24 148 235 219 378 335 156 63 7 1 0 0 0 0 0 0 0 0 0 0 0 0 0 0 0 0 0 0 0 0 0 0
0 0 0 0 0 0 0 0 0 0 0 0 0 0 0 0 0 0 104 130 183 177 264 180 73 43 4 1 1 0 0 0 0 0 0 0 0 0 0 0 0 0 0 0 0 0 0 0 0
0 0 0 0 0 0 0 0 0 0 0 0 0 0 0 0 0 0 61 153 243 119 178 174 114 100 35 0 0 0 0 0 0 0 0 0 0 0 0 0 0 0 0 0 0 0 0 0 0
0 0 0 0 0 0 0 0 0 0 0 0 0 0 0 0 0 0 66 145 198 151 34 212 154 136 85 31 2 0 0 0 0 0 0 0 0 0 0 0 0 0 2 0 0 0 0 0 0
2 0 0 0 0 0 0 0 0 0 0 0 0 0 0 0 0 0 0 125 137 164 60 43 147 146 127 65 23 7 0 0 0 0 0 0 0 0 0 0 0 1 0 0 0 0 0 0 0
0 0 0 0 0 0 0 0 0 0 0 0 0 0 0 0 0 0 0 87 146 177 161 30 123 178 135 75 29 7 0 0 0 0 0 0 0 0 0 0 1 0 0 0 0 0 0 0 0
4 0 0 0 0 0 0 0 0 0 0 0 0 0 0 0 0 0 35 79 152 178 145 62 63 93 90 30 7 0 0 0 0 0 0 0 0 0 0 0 0 0 0 0 0 0 0 0 0
0 0 0 0 0 0 0 0 0 0 0 0 0 0 0 0 0 0 0 13 10 0 101 103 52 58 65 51 17 0 0 0 0 0 0 0 0 0 0 0 0 0 0 0 0 0 0 0 0
0 0 0 0 0 0 0 0 0 0 0 0 0 0 0 0 0 0 0 0 8 3 81 92 53 56 79 47 1 0 0 0 0 0 0 0 0 0 0 0 0 0 0 0 0 0 0 0 0
1 0 2 1 0 0 0 0 0 0 0 0 0 0 0 0 0 0 0 0 10 18 94 158 85 63 117 17 1 0 0 0 0 0 0 0 0 0 0 0 0 0 0 0 0 0 0 0 0
0 0 0 1 0 0 0 0 0 0 0 0 0 0 0 0 0 0 0 0 14 9 11 0 132 93 82 2 0 0 0 0 0 0 0 0 0 0 0 0 0 0 0 0 0 0 0 0 0
0 0 0 1 0 0 0 0 0 0 0 0 0 0 0 0 0 0 0 0 26 14 1 0 66 134 89 2 0 0 0 0 0 0 0 0 0 0 0 0 0 0 0 0 0 0 0 0 0
0 0 0 0 0 0 0 0 0 0 0 0 0 0 0 0 0 0 0 0 0 37 31 32 76 134 111 34 0 0 0 0 0 0 0 0 0 0 0 0 0 0 0 0 0 0 0 0 0
0 0 0 0 0 0 0 0 0 0 0 0 0 0 0 0 0 0 0 0 0 6 57 96 80 97 82 73 44 0 0 0 0 0 0 0 0 0 0 0 0 0 0 0 0 0 0 0 0
0 0 0 0 0 0 0 0 0 0 0 0 0 0 0 0 0 0 0 0 0 21 46 129 121 94 116 92 68 15 0 0 0 0 0 0 0 0 0 0 0 0 0 0 0 0 0 0 0
1 0 0 0 0 0 0 0 0 1 0 4 0 0 0 0 0 0 0 0 0 1 86 168 116 99 110 96 93 38 7 0 0 0 0 0 0 0 0 0 0 0 0 0 0 0 0 0 0
0 0 0 0 0 0 0 0 1 4 0 32 0 0 0 0 0 0 0 0 2 8 11 0 2 1 3 8 22 7 1 0 0 1 1 2 1 3 1 0 0 0 0 0 0 0 0 0 0
2 1 0 0 0 0 0 0 0 2 0 3 2 4 0 0 0 0 0 0 0 0 1 2 2 2 7 8 8 8 7 4 6 4 2 0 3 1 1 0 0 0 0 0 0 0 0 0 0
CIN
-0 -0 -0 -0 -0 -0 -0 -0 -0 -0 -0 -0 -0 -3 -0 -13 -23 -13 -0 -27 -381 -215 -87 -56 -7 -0 -0 -0 -50 -0 -58 -54 -75 -90 -3 -1 -0 -0 -0 -0 -0 -0 -0 -0 -0 -0 -0 -0 -0
-0 -0 -0 -0 -0 -0 -0 -0 -0 -0 -0 -0 -2 -49 -52 -48 -176 -142 -250 -377 -328 -192 -118 -73 -36 -33 -13 -5 -0 -0 -64 -68 -1 -0 -1 -0 -1 -0 -1 -0 -0 -0 -0 -0 -0 -0 -0 -0 -0
-0 -0 -0 -0 -0 -0 -0 -0 -0 -0 -0 -0 -0 -31 -55 -67 -0 -80 -35 -334 -259 -199 -144 -115 -112 -93 -91 -87 -1 -62 -6 -32 -0 -0 -0 -1 -3 -0 -0 -0 -0 -0 -0 -0 -0 -0 -0 -0 -0
-0 -0 -0 -0 -0 -0 -0 -0 -0 -0 -0 -0 -51 -13 -96 -204 -192 -315 -378 -310 -252 -211 -148 -134 -105 -127 -115 -7 -0 -0 -1 -1 -1 -1 -2 -0 -4 -0 -1 -0 -0 -0 -4 -0 -0 -0 -0 -0 -0
-0 -0 -0 -0 -0 -0 -0 -0 -0 -0 -0 -0 -0 -17 -57 -179 -293 -331 -320 -290 -282 -209 -155 -129 -111 -121 -141 -2 -1 -1 -1 -0 -0 -0 -2 -3 -1 -1 -0 -0 -0 -3 -0 -0 -0 -0 -0 -0 -0
-0 -0 -0 -0 -0 -0 -0 -0 -0 -0 -0 -0 -0 -31 -49 -193 -221 -276 -278 -274 -259 -224 -153 -108 -112 -117 -152 -0 -0 -1 -0 -0 -0 -4 -3 -5 -1 -0 -0 -0 -0 -0 -0 -0 -0 -0 -0 -0 -0
-0 -0 -0 -0 -0 -0 -0 -0 -0 -0 -0 -0 -0 -0 -59 -112 -221 -194 -193 -223 -205 -182 -131 -96 -98 -157 -0 -0 -0 -1 -1 -0 -0 -5 -3 -2 -2 -0 -0 -1 -0 -0 -0 -0 -0 -0 -0 -0 -0
-0 -0 -0 -0 -0 -0 -0 -0 -0 -0 -0 -0 -0 -0 -20 -69 -170 -107 -84 -129 -166 -149 -98 -86 -121 -179 -0 -0 -0 -5 -1 -0 -1 -3 -2 -4 -0 -2 -1 -0 -0 -0 -0 -0 -0 -0 -0 -0 -0
-0 -0 -0 -0 -0 -0 -0 -0 -0 -0 -0 -0 -0 -74 -124 -110 -150 -60 -53 -55 -82 -99 -82 -75 -119 -210 -0 -0 -0 -1 -1 -0 -3 -4 -5 -4 -5 -4 -3 -1 -1 -1 -2 -9 -3 -0 -0 -0 -0
-0 -0 -0 -0 -0 -0 -0 -0 -0 -0 -0 -0 -0 -0 -0 -77 -93 -60 -60 -43 -67 -102 -102 -102 -147 -0 -0 -0 -0 -0 -3 -1 -4 -0 -3 -0 -3 -6 -0 -0 -1 -3 -7 -8 -0 -0 -0 -0 -0
-0 -0 -0 -0 -0 -0 -0 -0 -0 -0 -0 -0 -0 -0 -0 -0 -33 -68 -88 -71 -96 -98 -105 -117 -145 -0 -0 -0 -0 -0 -11 -0 -3 -0 -2 -1 -3 -0 -0 -0 -0 -0 -0 -9 -0 -0 -0 -0 -0
-0 -0 -0 -0 -0 -0 -0 -0 -0 -0 -0 -0 -0 -0 -0 -0 -0 -6 -65 -69 -30 -16 -51 -92 -126 -0 -0 -0 -0 -0 -0 -0 -0 -1 -0 -3 -0 -0 -0 -0 -0 -0 -0 -0 -0 -0 -0 -0 -0
-0 -0 -0 -0 -0 -0 -0 -0 -0 -0 -0 -0 -0 -0 -0 -0 -0 -47 -9 -61 -116 -37 -16 -46 -75 -141 -0 -0 -0 -0 -0 -0 -0 -0 -0 -0 -0 -0 -0 -0 -0 -0 -0 -0 -0 -0 -0 -0 -0
-0 -0 -0 -0 -0 -0 -0 -0 -0 -0 -0 -0 -0 -0 -0 -0 -0 -0 -10 -19 -87 -94 -70 -31 -47 -48 -66 -0 -0 -0 -0 -0 -0 -0 -0 -0 -0 -0 -0 -0 -0 -0 -0 -0 -0 -0 -0 -0 -0
-0 -0 -0 -0 -0 -0 -0 -0 -0 -0 -0 -0 -0 -0 -0 -0 -0 -0 -8 -24 -77 -99 -80 -41 -56 -30 -54 -0 -0 -0 -0 -0 -0 -0 -0 -0 -0 -0 -0 -0 -0 -0 -0 -0 -0 -0 -0 -0 -0
-0 -0 -0 -0 -0 -0 -0 -0 -0 -0 -0 -0 -0 -0 -0 -0 -0 -0 -22 -14 -38 -40 -66 -18 -34 -26 -32 -47 -43 -0 -0 -0 -0 -0 -0 -0 -0 -0 -0 -0 -0 -0 -40 -0 -0 -0 -0 -0 -0
-1 -0 -0 -0 -0 -0 -0 -0 -0 -0 -0 -0 -0 -0 -0 -0 -0 -0 -0 -8 -42 -30 -46 -62 -4 -19 -15 -28 -64 -65 -0 -0 -0 -0 -0 -0 -0 -0 -0 -0 -0 -27 -0 -0 -0 -0 -0 -0 -0
-0 -0 -0 -0 -0 -0 -0 -0 -0 -0 -0 -0 -0 -0 -0 -0 -0 -0 -0 -23 -9 -26 -17 -64 -52 -39 -38 -45 -38 -66 -19 -0 -0 -0 -0 -0 -0 -0 -0 -0 -24 -0 -0 -0 -0 -0 -0 -0 -0
-0 -0 -0 -0 -0 -0 -0 -0 -0 -0 -0 -0 -0 -0 -0 -0 -0 -0 -9 -12 -9 -8 -13 -15 -54 -57 -49 -23 -49 -0 -0 -0 -0 -0 -0 -0 -0 -0 -0 -0 -0 -0 -0 -0 -0 -0 -0 -0 -0
-0 -0 -0 -0 -0 -0 -0 -0 -0 -0 -0 -0 -0 -0 -0 -0 -0 -0 -0 -14 -17 -6 -7 -8 -19 -35 -41 -42 -92 -9 -0 -0 -0 -0 -0 -0 -0 -0 -0 -0 -0 -0 -0 -0 -0 -0 -0 -0 -0
-14 -0 -0 -0 -0 -3 -0 -0 -0 -0 -0 -0 -0 -0 -0 -0 -0 -0 -0 -0 -38 -33 -1 -12 -8 -30 -24 -41 -42 -0 -0 -0 -0 -0 -0 -0 -0 -0 -0 -0 -0 -0 -0 -0 -0 -0 -0 -0 -0
-2 -0 -0 -0 -0 -1 -1 -0 -0 -0 -0 -0 -0 -0 -0 -0 -0 -0 -0 -0 -44 -39 -6 -1 -22 -25 -11 -37 -20 -0 -0 -0 -0 -0 -0 -0 -0 -0 -0 -0 -0 -0 -0 -0 -0 -0 -0 -0 -0
-0 -0 -0 -0 -0 -0 -0 -0 -0 -0 -0 -0 -0 -0 -0 -0 -0 -0 -0 -0 -35 -71 -73 -0 -3 -14 -7 -23 -0 -0 -0 -0 -0 -0 -0 -0 -0 -0 -0 -0 -0 -0 -0 -0 -0 -0 -0 -0 -0
-0 -0 -0 -0 -0 -0 -0 -0 -0 -0 -0 -0 -0 -0 -0 -0 -0 -0 -0 -0 -14 -53 -12 -0 -2 -8 -15 -74 -0 -0 -0 -0 -0 -0 -0 -0 -0 -0 -0 -0 -0 -0 -0 -0 -0 -0 -0 -0 -0
-0 -0 -0 -0 -0 -0 -0 -0 -0 -0 -0 -0 -0 -0 -0 -0 -0 -0 -0 -0 -0 -24 -46 -30 -7 -4 -24 -40 -0 -0 -0 -0 -0 -0 -0 -0 -0 -0 -0 -0 -0 -0 -0 -0 -0 -0 -0 -0 -0
-0 -0 -0 -0 -0 -0 -0 -0 -0 -0 -0 -0 -0 -0 -0 -0 -0 -0 -0 -0 -0 -41 -59 -52 -34 -16 -38 -55 -66 -42 -0 -0 -0 -0 -0 -0 -0 -0 -0 -0 -0 -0 -0 -0 -0 -0 -0 -0 -0
-0 -0 -0 -0 -0 -0 -0 -0 -0 -0 -0 -0 -0 -0 -0 -0 -0 -0 -0 -0 -0 -63 -64 -59 -54 -38 -57 -74 -59 -88 -15 -0 -0 -0 -0 -0 -0 -0 -0 -0 -0 -0 -0 -0 -0 -0 -0 -0 -0
-0 -0 -0 -0 -0 -0 -0 -0 -0 -0 -0 -25 -0 -0 -0 -0 -0 -0 -0 -0 -0 -26 -113 -89 -86 -95 -97 -83 -48 -44 -99 -0 -0 -0 -0 -0 -0 -0 -0 -0 -0 -0 -0 -0 -0 -0 -0 -0 -0
-0 -0 -0 -0 -0 -0 -0 -0 -0 -0 -0 -4 -0 -0 -0 -0 -0 -0 -0 -0 -135 -42 -40 -0 -40 -45 -34 -28 -8 -7 -0 -0 -0 -0 -0 -0 -0 -0 -0 -0 -0 -0 -0 -0 -0 -0 -0 -0 -0
-0 -0 -0 -0 -0 -0 -0 -0 -2 -0 -0 -0 -0 -0 -0 -0 -0 -0 -0 -0 -0 -0 -0 -0 -0 -0 -0 -0 -0 -0 -0 -0 -0 -0 -0 -0 -0 -0 -0 -0 -0 -0 -0 -0 -0 -0 -0 -0 -0
Wind_Speed
30 29 22 19 23 26 33 31 24 31 26 19 25 22 21 23 21 24 11 2 2 10 10 12 13 13 12 11 9 8 9 8 7 6 4 4 4 3 5 7 10 13 14 16 17 16 14 13 12
28 24 18 20 25 31 33 26 25 23 22 25 24 20 19 23 18 12 5 6 7 11 11 11 13 13 11 10 9 9 7 6 6 5 5 4 4 3 3 5 8 11 14 16 17 17 15 13 11
24 16 19 19 26 30 36 26 27 31 28 28 29 22 21 22 17 6 10 5 8 9 10 11 13 12 11 10 9 8 7 6 6 6 5 4 4 4 2 3 6 10 13 15 16 17 18 15 12
21 19 22 25 27 32 38 29 27 37 31 29 27 27 22 23 12 10 4 7 8 8 10 12 13 13 12 12 11 9 7 7 6 6 5 5 5 5 3 3 5 8 11 13 16 17 18 16 14
19 21 25 30 30 31 31 31 32 38 35 34 31 33 25 22 17 7 7 8 9 8 10 12 12 13 12 12 12 10 8 8 7 7 6 7 6 5 3 3 5 8 11 12 14 16 16 16 14
23 22 32 38 35 37 37 38 35 34 37 40 37 31 26 24 13 8 9 10 9 10 11 11 11 11 12 12 12 11 8 8 8 8 7 7 7 5 4 2 4 6 8 11 13 14 14 15 13
27 29 37 39 39 38 37 32 37 39 40 41 35 41 30 23 16 11 11 10 10 10 11 11 11 11 12 12 12 10 9 8 9 9 8 7 8 7 4 2 2 4 7 9 11 12 13 13 12
27 31 41 39 42 47 41 35 31 31 35 33 25 34 33 25 19 14 14 13 12 11 12 12 11 11 11 11 12 10 10 9 9 9 9 8 8 8 6 4 2 2 4 6 8 9 10 11 12
26 37 45 42 42 43 36 38 31 32 33 34 31 30 32 17 16 15 17 17 15 14 13 14 12 12 11 11 11 11 10 9 9 10 10 9 9 8 7 7 4 1 1 4 5 7 8 10 11
31 40 41 37 39 41 43 42 40 38 40 37 35 30 26 26 17 18 21 20 18 17 15 15 14 14 13 11 11 10 9 9 9 10 11 11 10 8 8 8 6 3 1 2 4 5 6 8 9
34 44 42 45 44 43 45 46 38 44 42 29 35 36 31 29 33 22 22 22 21 18 17 16 16 15 14 13 12 11 10 9 9 10 11 12 11 10 9 9 8 6 5 4 4 4 5 6 7
41 42 43 43 41 44 46 42 47 46 47 38 37 37 34 32 35 36 23 28 23 22 20 17 16 16 15 15 14 13 11 10 10 10 12 12 11 12 11 10 8 7 5 4 3 3 5 4 4
39 42 42 44 48 48 46 48 50 54 43 39 37 39 41 39 36 39 40 32 25 24 23 19 18 17 17 16 15 14 13 11 10 10 12 12 13 12 11 11 10 9 7 5 3 4 6 5 3
32 39 44 45 47 47 50 52 48 50 43 44 43 44 43 42 39 40 40 35 27 27 24 24 17 19 18 17 16 15 14 12 10 10 12 13 13 13 12 12 12 10 8 7 5 4 5 5 3
17 41 44 46 42 44 42 52 56 45 49 51 47 47 44 45 40 39 37 38 29 31 27 23 22 18 20 18 17 16 15 14 12 11 12 13 13 12 12 12 12 10 9 8 6 7 7 6 6
19 18 41 42 33 35 36 58 47 41 46 51 49 46 48 47 43 40 39 38 33 29 29 26 24 17 20 20 18 17 16 14 13 12 12 12 13 12 13 13 12 11 9 7 7 7 7 7 7
16 23 28 41 28 35 35 50 41 40 45 49 49 46 46 49 42 40 39 37 36 30 27 27 23 19 17 16 18 19 16 16 14 13 13 11 11 11 12 14 13 9 9 9 8 8 8 8 9
24 17 13 28 26 38 45 50 46 43 42 45 46 44 44 46 51 43 41 37 34 33 30 28 25 22 19 15 17 16 17 17 16 15 14 14 13 12 13 13 12 11 11 11 10 10 10 10 10
21 22 22 14 32 40 46 49 49 46 47 49 48 46 44 42 40 42 40 36 36 34 32 31 28 25 23 23 20 19 16 18 19 18 15 15 15 14 14 15 14 13 14 13 12 12 13 14 11
16 43 41 18 11 17 42 47 46 47 49 49 51 50 47 45 43 44 44 38 35 39 37 33 30 28 25 24 21 21 21 17 18 22 20 19 17 16 16 16 16 15 16 16 14 13 16 18 13
9 27 37 34 19 10 40 50 48 49 48 49 51 52 48 48 48 44 43 43 39 37 36 32 32 30 27 24 22 19 18 18 20 17 23 20 18 18 19 18 18 17 17 17 16 16 16 19 17
7 15 30 34 16 35 13 42 42 40 44 50 52 53 50 49 49 46 44 44 41 39 27 31 34 34 30 27 28 26 21 24 19 18 20 25 22 21 22 22 20 20 20 20 19 18 19 19 21
9 2 20 28 18 31 25 37 42 38 44 48 47 55 54 48 50 49 45 44 44 43 36 38 36 31 31 25 29 26 23 23 24 22 17 18 19 22 25 24 24 22 22 22 21 21 22 22 23
2 4 2 4 2 3 3 7 32 32 43 41 45 49 51 45 47 48 45 41 42 38 35 39 35 31 28 27 26 25 20 19 22 22 21 22 17 17 18 20 23 26 24 25 25 24 25 24 26
17 11 13 15 15 6 7 9 27 30 34 41 44 47 49 46 46 48 49 45 40 36 32 27 32 29 27 27 28 27 24 21 18 18 17 16 18 20 18 18 22 23 23 24 25 26 27 27 28
11 17 12 13 11 7 6 23 27 25 32 36 43 43 43 42 43 47 48 41 37 37 35 35 28 29 24 20 26 26 24 23 21 19 19 16 18 19 25 20 20 22 23 24 26 27 29 29 29
16 13 6 2 3 5 9 3 7 18 35 34 35 39 41 39 39 42 47 40 36 35 32 30 34 27 20 17 21 25 26 26 24 22 22 23 19 20 19 23 23 22 24 26 27 29 30 29 29
18 18 12 11 10 12 13 16 29 29 24 17 27 32 35 36 37 39 43 40 33 32 29 23 26 20 15 15 19 26 28 27 29 29 27 25 24 22 22 23 23 24 20 22 26 28 28 27 27
14 12 14 12 12 15 15 22 13 17 16 9 11 22 30 33 30 29 34 31 25 21 20 18 15 16 19 20 20 23 25 25 25 27 29 31 31 28 27 24 24 22 20 20 20 23 24 25 24
6 13 15 20 22 9 10 12 13 13 8 3 5 10 13 16 17 18 21 23 19 17 13 12 12 12 14 14 16 17 19 20 21 23 25 25 27 25 24 20 19 18 19 20 21 21 22 23 24
Wind_Direction
302 303 312 308 291 287 277 276 283 280 285 287 279 285 280 272 269 272 306 282 133 144 148 147 143 140 138 133 125 124 125 128 131 133 146 138 128 114 84 70 67 69 70 73 72 67 60 52 47
309 307 308 297 284 275 278 278 277 281 281 284 289 282 282 273 280 291 298 277 141 139 148 153 149 143 141 138 132 132 135 143 145 162 183 149 147 131 107 76 68 71 75 75 75 72 64 55 43
312 314 294 290 279 258 277 277 275 276 278 280 283 285 280 277 277 255 295 147 144 149 156 157 153 149 148 143 139 144 150 171 186 185 192 171 161 151 163 85 71 74 77 76 75 75 76 64 47
312 301 293 277 261 280 272 283 278 270 274 277 284 276 284 277 274 267 199 176 165 174 166 158 156 153 150 147 144 151 166 177 194 189 187 191 171 164 160 101 78 75 77 77 79 82 80 70 54
310 296 282 276 261 275 280 279 277 268 271 272 278 272 279 280 276 238 196 186 177 177 185 167 160 158 155 150 147 152 165 182 195 197 184 198 185 170 166 120 89 83 82 79 81 82 80 75 59
296 291 281 274 275 278 274 273 276 273 269 266 272 275 275 277 267 232 212 195 193 183 184 179 170 166 162 156 151 153 164 188 197 188 191 204 207 187 182 142 99 84 82 82 83 80 78 74 63
290 284 276 279 281 280 275 276 271 271 268 263 273 266 270 271 263 244 231 209 202 197 188 191 189 177 169 166 159 157 166 188 192 200 198 198 213 217 204 200 125 88 87 86 83 79 75 71 64
293 285 279 278 277 275 273 275 275 274 268 274 278 264 264 261 261 245 236 222 209 203 205 201 198 191 183 181 169 164 161 177 200 202 203 203 215 223 225 226 226 102 83 76 76 70 68 67 69
293 281 277 276 275 274 280 272 273 275 270 269 270 272 275 248 251 239 235 230 219 213 201 206 204 206 200 197 186 171 166 179 197 204 210 207 230 227 233 243 242 220 68 51 56 50 53 69 80
286 278 278 278 277 276 276 272 272 269 267 265 264 275 282 260 224 235 233 226 217 212 205 205 206 214 209 205 201 196 189 192 206 213 216 225 231 229 235 243 249 250 289 11 27 31 32 70 80
289 278 282 278 278 278 274 271 272 264 260 260 261 265 269 264 254 235 234 228 218 215 214 212 208 211 214 213 207 212 209 205 209 212 217 227 234 235 237 244 250 258 277 315 347 14 20 63 82
290 285 281 280 278 276 272 275 266 262 259 263 263 265 265 262 257 245 240 242 230 224 223 211 209 207 213 222 215 216 211 207 212 216 215 221 228 236 241 243 246 251 269 288 322 343 328 8 40
294 288 283 280 276 273 273 268 265 260 264 263 262 262 260 261 262 248 243 241 235 227 226 219 216 208 213 216 221 222 218 212 213 211 219 224 231 232 236 244 250 253 265 273 294 314 315 326 32
309 298 289 283 276 273 268 265 264 259 265 262 260 260 259 259 259 256 246 243 239 238 227 224 215 214 214 218 220 221 225 222 214 216 222 227 235 236 239 246 249 252 260 268 278 302 308 315 338
330 298 291 282 280 272 272 262 256 266 264 259 258 258 257 256 256 255 250 247 242 239 235 227 228 215 216 217 221 224 228 226 223 222 224 228 237 236 240 248 247 252 255 264 275 298 302 308 317
326 322 293 282 286 278 271 256 261 267 261 255 255 255 252 252 252 254 249 246 243 240 237 232 230 212 216 221 222 228 229 228 228 227 227 218 235 234 247 248 249 254 252 248 270 289 293 298 304
330 323 312 283 292 280 272 260 266 267 259 255 252 253 253 249 249 252 252 249 244 241 236 232 229 219 214 213 224 230 228 231 230 231 233 214 221 233 245 251 256 239 244 254 268 280 282 287 295
320 319 319 303 298 286 273 266 264 265 262 255 254 252 253 248 244 248 247 246 245 241 237 232 230 225 221 217 227 233 234 236 236 236 238 227 236 234 243 251 247 249 252 259 267 273 285 286 288
312 251 250 274 249 288 273 267 264 263 259 255 253 250 250 250 247 241 246 247 245 243 237 233 229 229 225 231 230 234 231 238 242 243 238 241 245 239 246 250 250 253 256 258 263 278 278 288 291
315 287 263 261 269 300 280 269 267 262 256 253 250 249 248 248 246 245 245 244 244 242 242 234 230 229 230 234 236 241 241 243 245 249 248 250 249 246 248 251 253 255 261 265 261 268 282 289 276
277 255 262 249 299 271 282 267 266 262 257 253 249 247 248 244 242 242 242 239 240 240 242 234 231 231 233 235 237 242 246 251 253 245 253 254 252 249 253 255 258 261 261 262 260 264 270 279 274
322 344 293 286 310 291 314 274 270 265 257 250 247 244 245 243 241 241 241 238 238 237 245 240 235 236 237 236 239 242 240 249 254 253 256 257 257 256 257 258 259 265 266 264 263 265 270 278 278
33 315 346 311 322 298 304 274 273 263 255 249 247 242 243 243 240 239 240 239 237 235 242 247 243 239 238 238 241 245 247 252 260 262 257 256 255 258 258 260 263 266 268 265 266 269 272 274 282
355 40 352 185 141 348 317 302 284 264 250 253 250 244 240 240 238 237 237 239 236 237 238 238 243 236 236 241 241 246 240 254 257 261 262 264 259 254 253 259 265 268 268 268 269 271 273 276 281
64 62 60 75 83 207 80 312 247 287 269 255 249 243 237 237 236 233 231 234 236 236 235 243 239 236 240 243 248 249 253 257 252 257 259 257 259 264 252 254 263 267 269 269 269 272 274 277 279
40 53 56 56 71 81 150 276 294 312 292 272 250 240 233 234 233 231 228 231 234 232 235 236 242 240 241 241 250 254 257 262 266 265 266 260 258 262 271 260 265 269 272 272 272 274 277 281 283
45 16 304 90 109 83 104 185 248 281 288 262 245 232 227 229 228 228 223 225 230 233 238 242 241 246 248 247 254 258 261 266 270 274 274 276 270 271 271 270 272 275 277 276 276 278 280 284 288
42 29 47 66 79 59 61 318 318 311 308 277 226 220 222 225 227 226 222 221 228 235 243 247 242 243 256 262 265 264 266 269 274 277 280 282 281 274 280 279 278 281 285 284 283 284 288 288 292
339 16 61 71 100 79 79 59 338 316 303 261 220 219 222 221 223 225 218 219 226 235 245 249 258 265 272 279 282 277 278 279 286 289 292 294 292 291 296 294 291 295 297 299 298 295 293 294 295
17 350 64 77 79 106 121 107 32 339 304 235 201 197 199 203 214 206 202 205 216 227 245 257 272 284 293 299 299 301 298 296 298 299 302 305 302 307 313 307 303 305 307 307 305 302 302 303 299